DAL23A KDEN-KLAX

Flight info

Callsign DAL23A
Flight time 1h 57m
Altitude 40000
Route BAYLR6 TEHRU JASSE Q90 DNERO ANJLL4
Aircraft A339/H-SADE1E2E3GHIJ3J5M1P2RWXY/LB2D1

Departure

Time 2026-04-26 21:30
Airport Denver International Airport (KDEN)

Arrival

Time 2026-04-26 23:27
Airport Los Angeles International Airport (KLAX)
Time Latitude Longitude Altitude Speed Heading
2026-04-26 20:54 39.85797 -104.67677 5388 ft 0 kts 360°
2026-04-26 21:15 39.85789 -104.67677 5388 ft 2 kts 359°
2026-04-26 21:15 39.85773 -104.67677 5388 ft 2 kts 359°
2026-04-26 21:15 39.85759 -104.67677 5388 ft 2 kts 359°
2026-04-26 21:15 39.85743 -104.67677 5388 ft 2 kts 359°
2026-04-26 21:16 39.85728 -104.67676 5388 ft 2 kts 359°
2026-04-26 21:16 39.85721 -104.67676 5388 ft 0 kts 359°
2026-04-26 21:18 39.85724 -104.67678 5388 ft 2 kts 340°
2026-04-26 21:19 39.85734 -104.67733 5384 ft 11 kts 273°
2026-04-26 21:19 39.85734 -104.67839 5376 ft 12 kts 270°
2026-04-26 21:19 39.85736 -104.67944 5369 ft 13 kts 270°
2026-04-26 21:19 39.85737 -104.68003 5366 ft 0 kts 271°
2026-04-26 21:20 39.85737 -104.68011 5365 ft 0 kts 271°
2026-04-26 21:20 39.85738 -104.68038 5363 ft 1 kts 273°
2026-04-26 21:20 39.85740 -104.68075 5361 ft 6 kts 274°
2026-04-26 21:20 39.85743 -104.68099 5359 ft 5 kts 279°
2026-04-26 21:21 39.85735 -104.68165 5354 ft 8 kts 240°
2026-04-26 21:21 39.85690 -104.68253 5348 ft 14 kts 254°
2026-04-26 21:21 39.85688 -104.68402 5338 ft 17 kts 271°
2026-04-26 21:21 39.85730 -104.68508 5331 ft 15 kts 344°
2026-04-26 21:22 39.85798 -104.68514 5332 ft 9 kts 359°
2026-04-26 21:22 39.85811 -104.68514 5332 ft 8 kts
2026-04-26 21:22 39.85851 -104.68513 5333 ft 8 kts
2026-04-26 21:23 39.86165 -104.68507 5327 ft 27 kts 359°
2026-04-26 21:23 39.86336 -104.68507 5326 ft 13 kts
2026-04-26 21:23 39.86351 -104.68505 5327 ft 2 kts
2026-04-26 21:23 39.86381 -104.68504 5327 ft 6 kts
2026-04-26 21:24 39.86420 -104.68475 5329 ft 7 kts 73°
2026-04-26 21:24 39.86410 -104.68404 5332 ft 9 kts 146°
2026-04-26 21:24 39.86323 -104.68392 5331 ft 15 kts 179°
2026-04-26 21:24 39.86199 -104.68394 5333 ft 19 kts 181°
2026-04-26 21:25 39.86050 -104.68397 5337 ft 22 kts 181°
2026-04-26 21:25 39.85913 -104.68399 5339 ft 17 kts 180°
2026-04-26 21:25 39.85768 -104.68399 5339 ft 23 kts 180°
2026-04-26 21:25 39.85581 -104.68404 5334 ft 30 kts 181°
2026-04-26 21:26 39.85376 -104.68404 5330 ft 26 kts 181°
2026-04-26 21:26 39.85216 -104.68413 5326 ft 22 kts 193°
2026-04-26 21:26 39.85195 -104.68529 5316 ft 18 kts 290°
2026-04-26 21:26 39.85204 -104.68723 5307 ft 21 kts 269°
2026-04-26 21:27 39.85200 -104.68954 5296 ft 30 kts 270°
2026-04-26 21:27 39.85198 -104.69220 5294 ft 26 kts 270°
2026-04-26 21:27 39.85203 -104.69416 5300 ft 18 kts 269°
2026-04-26 21:27 39.85202 -104.69499 5302 ft 0 kts 270°
2026-04-26 21:28 39.85202 -104.69560 5305 ft 22 kts 270°
2026-04-26 21:28 39.85259 -104.69656 5305 ft 4 kts 355°
2026-04-26 21:28 39.85271 -104.69657 5304 ft 3 kts 354°
2026-04-26 21:28 39.85273 -104.69657 5304 ft 0 kts 359°
2026-04-26 21:29 39.85277 -104.69656 5304 ft 3 kts
2026-04-26 21:29 39.85460 -104.69654 5293 ft 64 kts 359°
2026-04-26 21:29 39.86206 -104.69649 5273 ft 141 kts
2026-04-26 21:29 39.87334 -104.69634 5707 ft 170 kts 358°
2026-04-26 21:30 39.88437 -104.69891 6770 ft 162 kts 332°
2026-04-26 21:30 39.89108 -104.70893 7691 ft 145 kts 289°
2026-04-26 21:30 39.89089 -104.72304 7917 ft 172 kts 250°
2026-04-26 21:30 39.88343 -104.73711 8143 ft 199 kts 232°
2026-04-26 21:31 39.87409 -104.75159 8491 ft 215 kts 231°
2026-04-26 21:31 39.86577 -104.76842 8876 ft 230 kts 246°
2026-04-26 21:31 39.85881 -104.78724 9881 ft 228 kts 244°
2026-04-26 21:31 39.85211 -104.80547 10807 ft 231 kts 245°
2026-04-26 21:32 39.84457 -104.82618 10879 ft 271 kts 245°
2026-04-26 21:32 39.83625 -104.84906 11796 ft 278 kts 245°
2026-04-26 21:32 39.82811 -104.87144 12906 ft 276 kts 245°
2026-04-26 21:32 39.81987 -104.89413 13847 ft 279 kts 245°
2026-04-26 21:33 39.81163 -104.91685 14762 ft 282 kts 245°
2026-04-26 21:33 39.80312 -104.94021 15529 ft 290 kts 244°
2026-04-26 21:33 39.79439 -104.96416 16386 ft 294 kts 244°
2026-04-26 21:33 39.78552 -104.98852 17192 ft 299 kts 244°
2026-04-26 21:34 39.77663 -105.01286 17950 ft 305 kts 243°
2026-04-26 21:34 39.76744 -105.03802 18762 ft 309 kts 243°
2026-04-26 21:34 39.75810 -105.06355 19554 ft 313 kts 243°
2026-04-26 21:34 39.74874 -105.08912 20327 ft 317 kts 244°
2026-04-26 21:35 39.73918 -105.11524 21092 ft 320 kts 244°
2026-04-26 21:35 39.72951 -105.14162 21787 ft 325 kts 244°
2026-04-26 21:35 39.71949 -105.16894 22215 ft 339 kts 244°
2026-04-26 21:35 39.70919 -105.19701 22848 ft 345 kts 244°
2026-04-26 21:36 39.69885 -105.22516 23656 ft 345 kts 243°
2026-04-26 21:36 39.69199 -105.24383 24089 ft 348 kts 243°
2026-04-26 21:36 39.67772 -105.28252 24883 ft 357 kts 243°
2026-04-26 21:36 39.66699 -105.31167 25630 ft 358 kts 243°
2026-04-26 21:37 39.65617 -105.34095 26323 ft 361 kts 243°
2026-04-26 21:37 39.64516 -105.37074 26916 ft 366 kts 243°
2026-04-26 21:37 39.63397 -105.40102 27556 ft 370 kts 243°
2026-04-26 21:37 39.62278 -105.43128 28232 ft 373 kts 242°
2026-04-26 21:38 39.61141 -105.46196 28862 ft 376 kts 242°
2026-04-26 21:38 39.59995 -105.49283 29521 ft 379 kts 242°
2026-04-26 21:38 39.58846 -105.52378 30162 ft 382 kts 242°
2026-04-26 21:38 39.57689 -105.55489 30698 ft 385 kts 242°
2026-04-26 21:39 39.56513 -105.58650 31299 ft 385 kts 242°
2026-04-26 21:39 39.55374 -105.61733 31970 ft 383 kts 244°
2026-04-26 21:39 39.54510 -105.64755 32399 ft 386 kts 249°
2026-04-26 21:39 39.53611 -105.68027 32907 ft 387 kts 248°
2026-04-26 21:40 39.52711 -105.71295 33557 ft 383 kts 248°
2026-04-26 21:40 39.51799 -105.74594 33987 ft 386 kts 249°
2026-04-26 21:40 39.50883 -105.77901 34400 ft 387 kts 249°
2026-04-26 21:40 39.49960 -105.81224 34694 ft 392 kts 249°
2026-04-26 21:41 39.49034 -105.84553 35043 ft 394 kts 249°
2026-04-26 21:41 39.48096 -105.87923 35366 ft 397 kts 249°
2026-04-26 21:41 39.47156 -105.91289 35746 ft 398 kts 249°
2026-04-26 21:41 39.46202 -105.94707 36065 ft 401 kts 249°
2026-04-26 21:42 39.45254 -105.98103 36410 ft 404 kts 249°
2026-04-26 21:42 39.44280 -106.01585 36753 ft 406 kts 249°
2026-04-26 21:42 39.43307 -106.05051 36992 ft 410 kts 249°
2026-04-26 21:42 39.42339 -106.08503 37269 ft 412 kts 249°
2026-04-26 21:43 39.41341 -106.12051 37522 ft 414 kts 249°
2026-04-26 21:43 39.40350 -106.15575 37736 ft 417 kts 249°
2026-04-26 21:43 39.39360 -106.19084 37928 ft 419 kts 249°
2026-04-26 21:43 39.38348 -106.22674 38181 ft 420 kts 249°
2026-04-26 21:44 39.37341 -106.26233 38322 ft 423 kts 249°
2026-04-26 21:44 39.36326 -106.29823 38510 ft 424 kts 250°
2026-04-26 21:44 39.35312 -106.33402 38649 ft 425 kts 249°
2026-04-26 21:44 39.34283 -106.37025 38852 ft 426 kts 249°
2026-04-26 21:45 39.32213 -106.44304 39062 ft 429 kts 249°
2026-04-26 21:45 39.31175 -106.47940 39167 ft 430 kts 250°
2026-04-26 21:45 39.30150 -106.51540 39259 ft 431 kts 249°
2026-04-26 21:46 39.29095 -106.55226 39366 ft 431 kts 249°
2026-04-26 21:46 39.28050 -106.58882 39459 ft 432 kts 250°
2026-04-26 21:46 39.25946 -106.66211 39590 ft 433 kts 249°
2026-04-26 21:47 39.23509 -106.73395 39657 ft 436 kts 236°
2026-04-26 21:47 39.19945 -106.79569 39752 ft 437 kts 234°
2026-04-26 21:48 39.16297 -106.85882 39854 ft 438 kts 234°
2026-04-26 21:48 39.12632 -106.92219 39856 ft 439 kts 234°
2026-04-26 21:49 39.08953 -106.98565 39913 ft 440 kts 235°
2026-04-26 21:49 39.05248 -107.04941 39922 ft 440 kts 234°
2026-04-26 21:50 39.02187 -107.10204 39917 ft 439 kts 235°
2026-04-26 21:50 38.97874 -107.17599 39901 ft 440 kts 234°
2026-04-26 21:51 38.94163 -107.23949 39894 ft 440 kts 234°
2026-04-26 21:51 38.90473 -107.30250 39892 ft 439 kts 235°
2026-04-26 21:52 38.86773 -107.36559 39919 ft 439 kts 235°
2026-04-26 21:52 38.83068 -107.42863 39923 ft 439 kts 234°
2026-04-26 21:53 38.79329 -107.49212 39931 ft 439 kts 235°
2026-04-26 21:53 38.75641 -107.55466 39929 ft 438 kts 235°
2026-04-26 21:54 38.71927 -107.61743 39936 ft 437 kts 234°
2026-04-26 21:54 38.68228 -107.67986 39935 ft 439 kts 234°
2026-04-26 21:55 38.64528 -107.74225 39930 ft 438 kts 234°
2026-04-26 21:55 38.60808 -107.80473 39909 ft 437 kts 234°
2026-04-26 21:56 38.57192 -107.86547 39889 ft 439 kts 235°
2026-04-26 21:56 38.53455 -107.92808 39841 ft 437 kts 234°
2026-04-26 21:57 38.49771 -107.98969 39847 ft 436 kts 234°
2026-04-26 21:57 38.46037 -108.05198 39899 ft 434 kts 234°
2026-04-26 21:58 38.42360 -108.11320 39900 ft 435 kts 234°
2026-04-26 21:58 38.38641 -108.17509 39904 ft 434 kts 235°
2026-04-26 21:59 38.34909 -108.23698 39892 ft 436 kts 234°
2026-04-26 21:59 38.31195 -108.29855 39892 ft 436 kts 234°
2026-04-26 22:00 38.27488 -108.35981 39891 ft 433 kts 234°
2026-04-26 22:00 38.23798 -108.42062 39890 ft 434 kts 235°
2026-04-26 22:01 38.20072 -108.48203 39893 ft 435 kts 234°
2026-04-26 22:01 38.16372 -108.54286 39876 ft 435 kts 235°
2026-04-26 22:02 38.13235 -108.59431 39872 ft 436 kts 235°
2026-04-26 22:02 38.08879 -108.66567 39876 ft 436 kts 234°
2026-04-26 22:03 38.05152 -108.72657 39864 ft 434 kts 234°
2026-04-26 22:03 38.01419 -108.78753 39873 ft 434 kts 233°
2026-04-26 22:04 37.97670 -108.84854 39864 ft 433 kts 234°
2026-04-26 22:04 37.93964 -108.90877 39851 ft 433 kts 234°
2026-04-26 22:05 37.90236 -108.96927 39852 ft 433 kts 234°
2026-04-26 22:05 37.86472 -109.03024 39846 ft 433 kts 234°
2026-04-26 22:06 37.82738 -109.09058 39840 ft 433 kts 234°
2026-04-26 22:06 37.79004 -109.15083 39838 ft 432 kts 234°
2026-04-26 22:07 37.75263 -109.21111 39838 ft 432 kts 234°
2026-04-26 22:07 37.71510 -109.27142 39845 ft 434 kts 234°
2026-04-26 22:08 37.67793 -109.33111 39834 ft 432 kts 234°
2026-04-26 22:08 37.64022 -109.39148 39836 ft 433 kts 234°
2026-04-26 22:09 37.60266 -109.45155 39830 ft 432 kts 234°
2026-04-26 22:09 37.56507 -109.51152 39828 ft 432 kts 234°
2026-04-26 22:10 37.52766 -109.57109 39826 ft 432 kts 234°
2026-04-26 22:10 37.49001 -109.63099 39819 ft 430 kts 234°
2026-04-26 22:11 37.45240 -109.69071 39839 ft 431 kts 233°
2026-04-26 22:11 37.41491 -109.75006 39833 ft 429 kts 233°
2026-04-26 22:12 37.37744 -109.80937 39833 ft 430 kts 233°
2026-04-26 22:12 37.33995 -109.86859 39834 ft 429 kts 233°
2026-04-26 22:13 37.30245 -109.92763 39830 ft 429 kts 234°
2026-04-26 22:13 37.26485 -109.98683 39822 ft 429 kts 234°
2026-04-26 22:14 37.22721 -110.04595 39829 ft 430 kts 234°
2026-04-26 22:14 37.18957 -110.10493 39841 ft 430 kts 233°
2026-04-26 22:15 37.15196 -110.16381 39848 ft 428 kts 233°
2026-04-26 22:15 37.11443 -110.22238 39842 ft 429 kts 233°
2026-04-26 22:16 37.07663 -110.28138 39840 ft 429 kts 233°
2026-04-26 22:16 37.03894 -110.34000 39839 ft 430 kts 233°
2026-04-26 22:17 37.00148 -110.39823 39846 ft 428 kts 233°
2026-04-26 22:17 36.96376 -110.45670 39849 ft 428 kts 233°
2026-04-26 22:18 36.92603 -110.51517 39836 ft 429 kts 233°
2026-04-26 22:18 36.88797 -110.57398 39840 ft 428 kts 234°
2026-04-26 22:19 36.85019 -110.63229 39841 ft 428 kts 233°
2026-04-26 22:19 36.81238 -110.69050 39863 ft 428 kts 233°
2026-04-26 22:20 36.78112 -110.73859 39856 ft 426 kts 233°
2026-04-26 22:20 36.73689 -110.80652 39861 ft 427 kts 233°
2026-04-26 22:21 36.69928 -110.86411 39861 ft 427 kts 233°
2026-04-26 22:21 36.66151 -110.92190 39867 ft 426 kts 233°
2026-04-26 22:22 36.62363 -110.97974 39868 ft 425 kts 233°
2026-04-26 22:22 36.58580 -111.03738 39860 ft 423 kts 233°
2026-04-26 22:23 36.54841 -111.09429 39866 ft 424 kts 233°
2026-04-26 22:23 36.51071 -111.15160 39875 ft 424 kts 234°
2026-04-26 22:24 36.47317 -111.20853 39875 ft 423 kts 234°
2026-04-26 22:24 36.43573 -111.26521 39879 ft 425 kts 234°
2026-04-26 22:25 36.39796 -111.32230 39884 ft 424 kts 233°
2026-04-26 22:25 36.36008 -111.37950 39879 ft 424 kts 233°
2026-04-26 22:26 36.32217 -111.43655 39882 ft 423 kts 233°
2026-04-26 22:26 36.28463 -111.49305 39885 ft 422 kts 233°
2026-04-26 22:27 36.24699 -111.54954 39898 ft 422 kts 234°
2026-04-26 22:27 36.20919 -111.60624 39892 ft 423 kts 233°
2026-04-26 22:28 36.17121 -111.66304 39901 ft 424 kts 233°
2026-04-26 22:28 36.13345 -111.71945 39893 ft 424 kts 233°
2026-04-26 22:29 36.09515 -111.77656 39885 ft 424 kts 233°
2026-04-26 22:29 36.06103 -111.83533 39865 ft 420 kts 248°
2026-04-26 22:30 36.04137 -111.90401 39889 ft 422 kts 250°
2026-04-26 22:30 36.02013 -111.97177 39914 ft 421 kts 249°
2026-04-26 22:31 35.99832 -112.03999 39908 ft 419 kts 249°
2026-04-26 22:31 35.97720 -112.10586 39916 ft 421 kts 249°
2026-04-26 22:32 35.95530 -112.17390 39931 ft 421 kts 249°
2026-04-26 22:32 35.93358 -112.24122 39926 ft 421 kts 249°
2026-04-26 22:33 35.90088 -112.34240 39909 ft 419 kts 249°
2026-04-26 22:34 35.87898 -112.40990 39908 ft 420 kts 249°
2026-04-26 22:34 35.85717 -112.47697 39911 ft 418 kts 249°
2026-04-26 22:35 35.83543 -112.54373 39913 ft 417 kts 248°
2026-04-26 22:35 35.81369 -112.61029 39914 ft 416 kts 249°
2026-04-26 22:36 35.79182 -112.67711 39926 ft 418 kts 248°
2026-04-26 22:36 35.76995 -112.74380 39922 ft 418 kts 248°
2026-04-26 22:37 35.74796 -112.81070 39915 ft 417 kts 248°
2026-04-26 22:37 35.72614 -112.87695 39898 ft 414 kts 248°
2026-04-26 22:38 35.70416 -112.94348 39896 ft 416 kts 249°
2026-04-26 22:38 35.68224 -113.00977 39889 ft 417 kts 248°
2026-04-26 22:39 35.66008 -113.07655 39900 ft 417 kts 248°
2026-04-26 22:39 35.63809 -113.14270 39904 ft 415 kts 249°
2026-04-26 22:40 35.61610 -113.20874 39912 ft 415 kts 248°
2026-04-26 22:40 35.59390 -113.27522 39906 ft 416 kts 248°
2026-04-26 22:41 35.57185 -113.34113 39921 ft 415 kts 248°
2026-04-26 22:41 35.54979 -113.40684 39915 ft 416 kts 248°
2026-04-26 22:42 35.52761 -113.47293 39917 ft 415 kts 248°
2026-04-26 22:42 35.50552 -113.53847 39906 ft 415 kts 248°
2026-04-26 22:43 35.48328 -113.60435 39902 ft 415 kts 248°
2026-04-26 22:43 35.46086 -113.67057 39919 ft 416 kts 247°
2026-04-26 22:44 35.43917 -113.73458 39914 ft 416 kts 248°
2026-04-26 22:44 35.41672 -113.80064 39918 ft 414 kts 248°
2026-04-26 22:45 35.39446 -113.86607 39905 ft 415 kts 248°
2026-04-26 22:45 35.37209 -113.93160 39909 ft 415 kts 248°
2026-04-26 22:46 35.34953 -113.99760 39918 ft 416 kts 247°
2026-04-26 22:46 35.32704 -114.06327 39923 ft 414 kts 248°
2026-04-26 22:47 35.30577 -114.12515 39901 ft 416 kts 248°
2026-04-26 22:47 35.28335 -114.19043 39902 ft 414 kts 247°
2026-04-26 22:48 35.26113 -114.25482 39176 ft 398 kts 248°
2026-04-26 22:48 35.25043 -114.28584 37640 ft 391 kts 248°
2026-04-26 22:48 35.24000 -114.31595 36317 ft 381 kts 248°
2026-04-26 22:48 35.22943 -114.34659 34621 ft 402 kts 247°
2026-04-26 22:49 35.21839 -114.37849 33636 ft 405 kts 247°
2026-04-26 22:49 35.20724 -114.41064 33349 ft 420 kts 247°
2026-04-26 22:49 35.19552 -114.44434 32958 ft 427 kts 247°
2026-04-26 22:49 35.18433 -114.47656 32488 ft 425 kts 248°
2026-04-26 22:50 35.17287 -114.50951 31616 ft 422 kts 248°
2026-04-26 22:50 35.16127 -114.54284 29918 ft 437 kts 248°
2026-04-26 22:50 35.14927 -114.57726 30012 ft 428 kts 248°
2026-04-26 22:50 35.13737 -114.61134 29932 ft 442 kts 248°
2026-04-26 22:51 35.12510 -114.64669 29748 ft 452 kts 248°
2026-04-26 22:51 35.11287 -114.68190 30005 ft 452 kts 248°
2026-04-26 22:51 35.10028 -114.71815 29851 ft 456 kts 248°
2026-04-26 22:52 35.07559 -114.78904 29934 ft 452 kts 247°
2026-04-26 22:52 35.05096 -114.85965 29872 ft 450 kts 248°
2026-04-26 22:53 35.02563 -114.92989 29880 ft 449 kts 246°
2026-04-26 22:53 34.99891 -114.99908 29878 ft 448 kts 246°
2026-04-26 22:54 34.97224 -115.06818 29887 ft 447 kts 246°
2026-04-26 22:54 34.94548 -115.13742 29872 ft 447 kts 246°
2026-04-26 22:55 34.91874 -115.20648 29857 ft 448 kts 245°
2026-04-26 22:55 34.89429 -115.26944 29904 ft 451 kts 246°
2026-04-26 22:56 34.86719 -115.33911 29875 ft 450 kts 245°
2026-04-26 22:56 34.84030 -115.40811 29873 ft 448 kts 246°
2026-04-26 22:57 34.81330 -115.47730 29877 ft 450 kts 246°
2026-04-26 22:57 34.78627 -115.54631 29886 ft 447 kts 245°
2026-04-26 22:58 34.75946 -115.61467 29876 ft 447 kts 246°
2026-04-26 22:58 34.73349 -115.68075 29888 ft 450 kts 245°
2026-04-26 22:59 34.71578 -115.72575 29890 ft 448 kts 245°
2026-04-26 22:59 34.68866 -115.79451 29887 ft 447 kts 245°
2026-04-26 23:00 34.66212 -115.86170 29737 ft 423 kts 245°
2026-04-26 23:00 34.64946 -115.89366 28885 ft 418 kts 245°
2026-04-26 23:00 34.63683 -115.92554 27788 ft 418 kts 245°
2026-04-26 23:00 34.62419 -115.95742 26888 ft 414 kts 245°
2026-04-26 23:01 34.61169 -115.98894 25977 ft 411 kts 245°
2026-04-26 23:01 34.59914 -116.02052 25077 ft 408 kts 245°
2026-04-26 23:01 34.58702 -116.05097 24204 ft 404 kts 245°
2026-04-26 23:01 34.57463 -116.08213 23797 ft 399 kts 245°
2026-04-26 23:02 34.56252 -116.11251 24001 ft 403 kts 246°
2026-04-26 23:02 34.55002 -116.14390 23850 ft 405 kts 245°
2026-04-26 23:02 34.53772 -116.17474 23906 ft 419 kts 245°
2026-04-26 23:02 34.52447 -116.20786 23925 ft 424 kts 245°
2026-04-26 23:03 34.51173 -116.23975 23903 ft 426 kts 245°
2026-04-26 23:03 34.49862 -116.27251 23905 ft 426 kts 245°
2026-04-26 23:03 34.48571 -116.30470 23897 ft 425 kts 245°
2026-04-26 23:03 34.47241 -116.33785 23907 ft 424 kts 245°
2026-04-26 23:04 34.45976 -116.36937 23910 ft 424 kts 246°
2026-04-26 23:04 34.44666 -116.40197 23915 ft 423 kts 246°
2026-04-26 23:04 34.43391 -116.43370 23919 ft 424 kts 245°
2026-04-26 23:04 34.42075 -116.46638 23921 ft 425 kts 245°
2026-04-26 23:05 34.40777 -116.49856 23917 ft 424 kts 245°
2026-04-26 23:05 34.39474 -116.53090 23912 ft 423 kts 245°
2026-04-26 23:05 34.38173 -116.56308 23910 ft 424 kts 246°
2026-04-26 23:05 34.36839 -116.59614 23917 ft 424 kts 245°
2026-04-26 23:06 34.35538 -116.62827 23920 ft 424 kts 246°
2026-04-26 23:06 34.34233 -116.66048 23934 ft 422 kts 245°
2026-04-26 23:06 34.32943 -116.69232 23941 ft 421 kts 245°
2026-04-26 23:06 34.31666 -116.72379 23794 ft 400 kts 245°
2026-04-26 23:07 34.30436 -116.75409 22848 ft 397 kts 245°
2026-04-26 23:07 34.29630 -116.77390 22481 ft 388 kts 245°
2026-04-26 23:07 34.28092 -116.81167 22517 ft 356 kts 245°
2026-04-26 23:07 34.27003 -116.83846 21946 ft 360 kts 246°
2026-04-26 23:08 34.25877 -116.86613 21434 ft 360 kts 246°
2026-04-26 23:08 34.24776 -116.89311 20932 ft 354 kts 246°
2026-04-26 23:08 34.23694 -116.91965 20427 ft 349 kts 246°
2026-04-26 23:08 34.22621 -116.94588 19929 ft 347 kts 246°
2026-04-26 23:09 34.21547 -116.97218 19427 ft 345 kts 246°
2026-04-26 23:09 34.20616 -116.99869 18849 ft 335 kts 253°
2026-04-26 23:09 34.19919 -117.02575 17567 ft 342 kts 255°
2026-04-26 23:09 34.19192 -117.05331 16998 ft 336 kts 254°
2026-04-26 23:10 34.18489 -117.07968 16495 ft 331 kts 254°
2026-04-26 23:10 34.17778 -117.10606 15901 ft 328 kts 254°
2026-04-26 23:10 34.17067 -117.13238 15293 ft 326 kts 254°
2026-04-26 23:10 34.16365 -117.15827 14655 ft 324 kts 254°
2026-04-26 23:11 34.15656 -117.18401 14125 ft 319 kts 255°
2026-04-26 23:11 34.14960 -117.20937 13909 ft 310 kts 255°
2026-04-26 23:11 34.14281 -117.23407 13984 ft 309 kts 254°
2026-04-26 23:11 34.13602 -117.25874 13904 ft 307 kts 254°
2026-04-26 23:12 34.12916 -117.28367 13965 ft 306 kts 255°
2026-04-26 23:12 34.12243 -117.30810 13969 ft 308 kts 255°
2026-04-26 23:12 34.11556 -117.33299 13967 ft 309 kts 255°
2026-04-26 23:12 34.10873 -117.35771 13965 ft 309 kts 254°
2026-04-26 23:13 34.10206 -117.38281 13962 ft 308 kts 256°
2026-04-26 23:13 34.09587 -117.40771 13972 ft 307 kts 256°
2026-04-26 23:13 34.08973 -117.43235 13833 ft 302 kts 256°
2026-04-26 23:13 34.08357 -117.45692 13260 ft 303 kts 256°
2026-04-26 23:14 34.07747 -117.48128 12665 ft 304 kts 256°
2026-04-26 23:14 34.07184 -117.50365 12231 ft 301 kts 256°
2026-04-26 23:14 34.06562 -117.52801 11748 ft 298 kts 255°
2026-04-26 23:14 34.05951 -117.55196 11282 ft 295 kts 255°
2026-04-26 23:15 34.05350 -117.57549 10800 ft 293 kts 255°
2026-04-26 23:15 34.04741 -117.59930 10318 ft 291 kts 255°
2026-04-26 23:15 34.04151 -117.62231 9889 ft 288 kts 255°
2026-04-26 23:15 34.03564 -117.64526 9711 ft 273 kts 255°
2026-04-26 23:16 34.03020 -117.66641 9496 ft 255 kts 255°
2026-04-26 23:16 34.02491 -117.68708 9092 ft 256 kts 254°
2026-04-26 23:16 34.02059 -117.70773 8746 ft 254 kts 263°
2026-04-26 23:16 34.01875 -117.72890 8388 ft 254 kts 265°
2026-04-26 23:17 34.01682 -117.75023 8057 ft 253 kts 264°
2026-04-26 23:17 34.01482 -117.77166 7686 ft 254 kts 264°
2026-04-26 23:17 34.01282 -117.79272 7357 ft 254 kts 264°
2026-04-26 23:17 34.01075 -117.81419 7029 ft 253 kts 264°
2026-04-26 23:18 34.00873 -117.83511 6716 ft 252 kts 264°
2026-04-26 23:18 34.00666 -117.85640 6367 ft 253 kts 264°
2026-04-26 23:18 34.00459 -117.87759 6034 ft 254 kts 264°
2026-04-26 23:18 34.00252 -117.89874 5947 ft 246 kts 264°
2026-04-26 23:19 34.00057 -117.91873 5948 ft 235 kts 265°
2026-04-26 23:19 33.99868 -117.93831 5948 ft 231 kts 265°
2026-04-26 23:19 33.99676 -117.95770 5952 ft 231 kts 264°
2026-04-26 23:19 33.99485 -117.97698 5954 ft 231 kts 264°
2026-04-26 23:20 33.99293 -117.99645 5953 ft 230 kts 264°
2026-04-26 23:20 33.99106 -118.01559 5735 ft 230 kts 264°
2026-04-26 23:20 33.98922 -118.03499 5483 ft 229 kts 264°
2026-04-26 23:20 33.98735 -118.05430 5244 ft 229 kts 264°
2026-04-26 23:21 33.98549 -118.07324 5067 ft 221 kts 264°
2026-04-26 23:21 33.98378 -118.09042 4935 ft 196 kts 264°
2026-04-26 23:21 33.98218 -118.10633 4662 ft 186 kts 264°
2026-04-26 23:21 33.98061 -118.12176 4434 ft 183 kts 264°
2026-04-26 23:22 33.97910 -118.13704 4077 ft 183 kts 264°
2026-04-26 23:22 33.97754 -118.15272 3539 ft 195 kts 263°
2026-04-26 23:22 33.97588 -118.16924 3112 ft 199 kts 263°
2026-04-26 23:22 33.97420 -118.18575 2793 ft 197 kts 263°
2026-04-26 23:23 33.97256 -118.20198 2571 ft 184 kts 262°
2026-04-26 23:23 33.97105 -118.21684 2422 ft 164 kts 262°
2026-04-26 23:23 33.96968 -118.23039 1967 ft 170 kts 262°
2026-04-26 23:23 33.96831 -118.24390 2153 ft 162 kts 262°
2026-04-26 23:24 33.96683 -118.25826 2177 ft 177 kts 262°
2026-04-26 23:24 33.96541 -118.27239 2127 ft 165 kts 262°
2026-04-26 23:24 33.96405 -118.28585 2070 ft 160 kts 262°
2026-04-26 23:24 33.96276 -118.29849 1805 ft 145 kts 262°
2026-04-26 23:25 33.96156 -118.31023 1613 ft 140 kts 261°
2026-04-26 23:25 33.96036 -118.32188 1441 ft 140 kts 261°
2026-04-26 23:25 33.95919 -118.33334 1266 ft 136 kts 261°
2026-04-26 23:25 33.95799 -118.34492 1077 ft 137 kts 261°
2026-04-26 23:26 33.95683 -118.35627 903 ft 143 kts 261°
2026-04-26 23:26 33.95565 -118.36778 706 ft 134 kts 261°
2026-04-26 23:26 33.95446 -118.37921 540 ft 135 kts 260°
2026-04-26 23:26 33.95334 -118.39043 360 ft 129 kts 261°
2026-04-26 23:27 33.95221 -118.40159 190 ft 133 kts 260°
2026-04-26 23:27 33.95112 -118.41158 132 ft 106 kts 259°
2026-04-26 23:27 33.95037 -118.41885 128 ft 59 kts 262°
2026-04-26 23:27 33.94986 -118.42130 125 ft 32 kts 248°
2026-04-26 23:28 33.94913 -118.42234 125 ft 3 kts 223°
2026-04-26 23:28 33.94905 -118.42243 125 ft 1 kts 224°
2026-04-26 23:28 33.94887 -118.42266 124 ft 5 kts 227°
2026-04-26 23:28 33.94836 -118.42284 123 ft 9 kts 182°
2026-04-26 23:29 33.94773 -118.42281 122 ft 9 kts 175°
2026-04-26 23:29 33.94714 -118.42271 122 ft 8 kts 166°
2026-04-26 23:29 33.94688 -118.42210 122 ft 10 kts 87°
2026-04-26 23:29 33.94696 -118.42117 123 ft 11 kts 84°
2026-04-26 23:30 33.94705 -118.42016 125 ft 12 kts 83°
2026-04-26 23:30 33.94717 -118.41900 125 ft 15 kts 83°
2026-04-26 23:30 33.94731 -118.41764 125 ft 17 kts 83°
2026-04-26 23:30 33.94747 -118.41608 125 ft 19 kts 83°
2026-04-26 23:31 33.94763 -118.41468 127 ft 16 kts 81°
2026-04-26 23:31 33.94785 -118.41353 128 ft 10 kts 89°
2026-04-26 23:31 33.94741 -118.41295 127 ft 9 kts 166°
2026-04-26 23:31 33.94668 -118.41283 126 ft 11 kts 172°
2026-04-26 23:32 33.94578 -118.41269 125 ft 12 kts 173°
2026-04-26 23:32 33.94501 -118.41258 125 ft 9 kts 173°
2026-04-26 23:32 33.94463 -118.41244 125 ft 5 kts 140°
2026-04-26 23:32 33.94456 -118.41202 125 ft 4 kts 84°
2026-04-26 23:33 33.94459 -118.41162 125 ft 2 kts 85°
2026-04-26 23:33 33.94461 -118.41150 125 ft 0 kts 84°
2026-04-26 23:33 33.94461 -118.41141 125 ft 1 kts 84°
2026-04-26 23:33 33.94462 -118.41138 125 ft 0 kts 84°